Location: Kunchanapalle
(16.4623°N, 80.6176°E)
Time: 17:36:15
(UTC+00:00)

ASTEX 1 - Pass Details

Date: 13 August 2020
Orbit: 721 x 743 km, 92.7° (Epoch: 18 September)

Event Time Altitude Azimuth Distance (km) Brightness Sun altitude
Rises 23:14:25 0° 10° (N) 3,128 7.1 -16.1°
Reaches altitude 10° 23:16:42 10° 12° (NNE) 2,209 6.3 -15.6°
Maximum altitude 23:21:34 69° 96° (E) 773 3.7 -14.5°
Drops below altitude 10° 23:26:26 10° 179° (S) 2,218 5.7 -13.4°
Sets 23:28:44 0° 182° (S) 3,141 6.5 -12.9°
